GSAT0102 (GALILEO-FM2)

Last updated on Sun Oct 26 2025 00:02:42 GMT+0000 (Coordinated Universal Time)

1 37847U 11060B 25297.54367209 -.00000080 00000+0 00000+0 0 9995 2 37847 57.0647 348.1568 0002774 305.9297 47.9134 1.70476074 87100
UTC large
Height (km)
Speed (km/s)
/
Latitude / Longitude
Inclination (degrees)
Orbital Period (minutes)
Azimuth
Elevation
Range (km)
Doppler Factor

Next 0 passes for location: London (51.5072 / 0.1276)

Sorry there are no passes over London.